Flag for Israel Weather past 2 weeks in Petah Tikva, Israel

Now
86 °F

Broken clouds.


Feels Like: 95 °F
Forecast: 78 / 87 °F
Wind: 7 mph from Northwest

Location: Ben Gurion International Airport

Current Time: Aug 31, 2014 at 12:07:23 PM

Latest Report: Aug 31, 2014 at 11:20 AM


Visibility: N/A

Pressure: 29.80 "Hg

Humidity: 70%

Dew point: 75 °F

Location of Petah TikvaLocation

Historic Weather in Petah Tikva — Graph

°F

Petah Tikva temperature yesterday

Maximum temperature yesterday: 90 °F (at 12:20 PM)
Minimum temperature yesterday: 77 °F (at 2:50 AM)
Average temperature yesterday: 83 °F

Past Weeks' High & Low Weather Summary

 TemperatureHumidityPressure
High93 °F (Aug 18, 11:20 AM)89% (Aug 23, 4:50 AM)29.95 "Hg (Aug 23, 4:50 AM)
Low73 °F (Aug 26, 5:20 AM)46% (Aug 20, 11:20 AM)29.62 "Hg (Aug 17, 1:20 PM)
Average83 °F68%29.77 "Hg
* Reported Aug 16 10:20 AM — Aug 31 10:50 AM, Petah Tikva, Weather by CustomWeather, © 2014

Note: Actual official high and low records may vary slightly from our data, if they occured in-between our weather recording intervals... More about our weather records

Advertising

Petah Tikva weather history for previous 24 hours

 ConditionsComfort  
Time TempWeatherWind HumidityBarometerVisibility
10:50 AM
Aug 31
84 °FBroken clouds.7 mph70%29.80 "HgN/A
10:20 AM84 °FBroken clouds.7 mph70%29.80 "HgN/A
9:50 AM84 °FBroken clouds.7 mph70%29.80 "HgN/A
9:20 AM84 °FBroken clouds.6 mph70%29.80 "HgN/A
8:50 AM84 °FBroken clouds.6 mph74%29.80 "HgN/A
8:20 AM82 °FPartly sunny.6 mph79%29.80 "HgN/A
7:50 AM82 °FPartly sunny.5 mph79%29.80 "HgN/A
7:20 AM82 °FPartly sunny.6 mph79%29.80 "HgN/A
6:50 AM81 °FPassing clouds.3 mph84%29.80 "HgN/A
6:20 AM81 °FPassing clouds.5 mph84%29.77 "HgN/A
5:50 AM81 °FPassing clouds.7 mph84%29.77 "HgN/A
5:20 AM82 °FPassing clouds.6 mph79%29.77 "HgN/A
4:50 AM82 °FPassing clouds.6 mph79%29.77 "HgN/A
4:20 AM82 °FPassing clouds.6 mph79%29.77 "HgN/A
3:50 AM82 °FPassing clouds.8 mph79%29.77 "HgN/A
3:20 AM82 °FPassing clouds.8 mph79%29.77 "HgN/A
2:50 AM82 °FPassing clouds.8 mph79%29.77 "HgN/A
2:20 AM82 °FPassing clouds.8 mph79%29.77 "HgN/A
1:50 AM82 °FPassing clouds.7 mph79%29.77 "HgN/A
1:20 AM82 °FPassing clouds.7 mph79%29.77 "HgN/A
12:50 AM82 °FPassing clouds.7 mph79%29.77 "HgN/A
12:20 AM82 °FPassing clouds.6 mph79%29.80 "HgN/A
11:50 PM
Aug 30
82 °FPassing clouds.6 mph79%29.80 "HgN/A
11:20 PM84 °FPassing clouds.6 mph74%29.80 "HgN/A
10:50 PM84 °FPassing clouds.3 mph74%29.80 "HgN/A
10:20 PM84 °FPassing clouds.6 mph74%29.80 "HgN/A
9:50 PM82 °FPassing clouds.6 mph79%29.80 "HgN/A
9:20 PM84 °FPassing clouds.7 mph74%29.80 "HgN/A
8:20 PM84 °FPassing clouds.9 mph74%29.77 "HgN/A
7:50 PM84 °FPartly sunny.9 mph74%29.77 "HgN/A
7:20 PM84 °FPartly sunny.9 mph74%29.77 "HgN/A
6:50 PM84 °FPartly sunny.12 mph74%29.77 "HgN/A
6:20 PM86 °FScattered clouds.12 mph70%29.77 "HgN/A
5:50 PM86 °FScattered clouds.12 mph70%29.77 "HgN/A
5:20 PM86 °FScattered clouds.13 mph70%29.77 "HgN/A
4:50 PM88 °FScattered clouds.13 mph66%29.77 "HgN/A
4:20 PM88 °FPassing clouds.12 mph62%29.77 "HgN/A
3:50 PM88 °FPassing clouds.10 mph62%29.77 "HgN/A
3:20 PM88 °FPassing clouds.12 mph62%29.77 "HgN/A
2:50 PM90 °FPassing clouds.10 mph59%29.77 "HgN/A
2:20 PM88 °FPassing clouds.12 mph62%29.77 "HgN/A
1:50 PM88 °FPassing clouds.10 mph62%29.77 "HgN/A
1:20 PM90 °FScattered clouds.8 mph59%29.80 "HgN/A
12:50 PM90 °FScattered clouds.9 mph59%29.80 "HgN/A
12:20 PM90 °FScattered clouds.9 mph59%29.80 "HgN/A
Weather by CustomWeather, © 2014

See weather overviewHow to use our weather pages